Regional Weather Roundup
Issued by NWS

Home | Current Version | Previous Version | Text Only | Print | Product List | Glossary Off
Versions: 1 2 3 4 5 6 7 8 9 10 11 12 13 14 15 16 17 18 19 20 21 22 23 24 25 26 27 28 29 30 31 32 33 34 35 36 37 38 39 40 41 42 43 44 45 46 47 48 49 50

000
ASUS43 KFSD 060510
RWRSD

WEATHER ROUNDUP FOR SOUTH DAKOTA
NATIONAL WEATHER SERVICE SIOUX FALLS SD
1100 PM CST FRI FEB 05 2016

NOTE: "FAIR" INDICATES FEW OR NO CLOUDS BELOW 12,000 FEET WITH NO
SIGNIFICANT WEATHER AND/OR OBSTRUCTIONS TO VISIBILITY.


SDZ001>005-009-010-012>017-060600-
NORTHWEST AND NORTH CENTRAL SOUTH DAKOTA

CITY           SKY/WX    TMP DP  RH WIND       PRES   REMARKS
BUFFALO          N/A     30  21  69 W9        30.00F WCI  22
FAITH            N/A     30  21  69 SW12      30.09F WCI  20
MOBRIDGE       CLEAR     28  22  78 SE8       30.07F WCI  20
$$

SDZ012>016-024>037-041>051-057-063-072>074-060600-
SOUTHWEST AND SOUTH CENTRAL SOUTH DAKOTA

CITY           SKY/WX    TMP DP  RH WIND       PRES   REMARKS
RAPID CTY ARPT CLEAR     26  17  68 S3        30.14F
PIERRE         CLEAR     30  24  78 SW10      30.14F WCI  21
CUSTER         CLOUDY    23   9  55 MISG      30.12F
ELLSWORTH AFB  CLEAR     28  18  65 SW6       30.13F WCI  22
PHILIP         CLEAR     27  22  81 W6        30.17S WCI  20
PINE RIDGE     CLEAR     25  16  68 CALM      30.20F
SPEARFISH      FAIR      36  16  44 SW17G23   30.11F
WINNER         FAIR      29  21  72 SW10      30.20R WCI  20
$$

SDZ004>011-016>023-039-040-060600-
NORTHEAST SOUTH DAKOTA

CITY           SKY/WX    TMP DP  RH WIND       PRES   REMARKS
ABERDEEN       CLEAR     20  16  84 SW6       30.13F WCI  12
WATERTOWN      FOG       16  13  88 S5        30.13F VSB 1/4 WCI   9
BROOKINGS      FOG       23  22  96 SW5       30.17S VSB 1/4 WCI  17
SISSETON         N/A     16  13  88 S5        30.12F WCI   9
$$

SDZ017-020-022-023-036>040-048>070-060600-
SOUTHEAST SOUTH DAKOTA

CITY           SKY/WX    TMP DP  RH WIND       PRES   REMARKS
SIOUX FALLS    FOG       26  24  92 SW3       30.20S VSB 1/4
HURON          CLEAR     25  20  81 SW8       30.18S WCI  16
CHAMBERLAIN    CLEAR     27  24  88 SW7       30.19S WCI  20
MITCHELL       CLEAR     25  24  96 SW6       30.21F WCI  18
YANKTON        CLEAR     27  25  93 W6        30.23S WCI  20
$$

ABBREVIATIONS USED IN REMARKS
   TC - TEMPERATURE IN CELSIUS
  WCI - WIND CHILL INDEX
   HX - HEAT INDEX
  VSB - VISIBILITY




USA.gov is the U.S. government's official web portal to all federal, state and local government web resources and services.